This demonstration page uses our WeatherBlox Daily Observations layout. Learn more.

Left ArrowRight Arrow

Hourly Observations for December 13, 2015

Temp ( °F °C ) Dew Point ( °F °C ) Humidity (%) Winds ( mph kmh ) Pressure ( in mb ) Visibility ( mi km ) Precip ( " mm )
12:53 am 00:53 Clear 57 13.9 55 12.8 93 93 E 3 6 30.11 1020 10 16 N/A
1:53 am 01:53 Clear 57 13.9 55 12.8 93 93 N N/A 30.10 1019 9 14 N/A
2:53 am 02:53 Clear 57 13.9 56 13.3 96 96 ESE 3 6 30.11 1020 9 14 N/A
3:53 am 03:53 Clear 55 12.8 54 12.2 96 96 N N/A 30.09 1019 8 13 N/A
4:53 am 04:53 Clear with Mist and Fog 53 11.7 52 11.1 96 96 E 3 6 30.08 1019 4 6 N/A
5:53 am 05:53 Clear 56 13.3 56 13.3 100 100 N N/A 30.07 1018 7 11 N/A
6:53 am 06:53 Clear 59 15 56 13.3 90 90 ESE 5 7 30.08 1019 10 16 N/A
7:53 am 07:53 Sunny 58 14.4 56 13.3 93 93 N N/A 30.08 1019 10 16 N/A
8:53 am 08:53 Sunny 58 14.4 55 12.8 90 90 N N/A 30.06 1018 9 14 N/A
9:53 am 09:53 Sunny 59 15 55 12.8 87 87 SE 3 6 30.06 1018 10 16 N/A
10:53 am 10:53 Sunny 61 16.1 55 12.8 81 81 VRB 5 7 30.05 1018 10 16 N/A
11:53 am 11:53 Sunny 62 16.7 55 12.8 78 78 undefined N/A 30.03 1017 10 16 N/A
12:53 pm 12:53 Sunny 63 17.2 55 12.8 76 76 SSE 5 7 29.99 1016 10 16 N/A
1:53 pm 13:53 Sunny 63 17.2 54 12.2 73 73 S 6 9 29.98 1015 10 16 N/A
2:53 pm 14:53 Sunny 64 17.8 54 12.2 70 70 SSE 8 13 29.93 1014 10 16 N/A
3:53 pm 15:53 Sunny 63 17.2 54 12.2 73 73 VRB 5 7 29.91 1013 10 16 N/A
4:53 pm 16:53 Sunny 63 17.2 53 11.7 70 70 SE 3 6 29.91 1013 10 16 N/A
5:53 pm 17:53 Clear 60 15.6 53 11.7 78 78 E 6 9 29.88 1012 10 16 N/A
6:53 pm 18:53 Clear 60 15.6 53 11.7 78 78 ESE 3 6 29.86 1011 10 16 N/A
7:53 pm 19:53 Clear 62 16.7 52 11.1 70 70 SE 3 6 29.85 1011 10 16 N/A
8:53 pm 20:53 Clear 61 16.1 51 10.6 70 70 ESE 3 6 29.83 1010 10 16 N/A
9:53 pm 21:53 Clear 58 14.4 50 10 75 75 E 6 9 29.80 1009 10 16 N/A
10:53 pm 22:53 Clear 56 13.3 49 9.4 77 77 E 6 9 29.76 1008 10 16 N/A
11:53 pm 23:53 Clear 63 17.2 47 8.3 56 56 VRB 6 9 29.72 1007 10 16 N/A

Powered by AerisWeather